Time,TemperatureF,DewpointF,PressureIn,WindDirection,WindDirectionDegrees,WindSpeedMPH,WindSpeedGustMPH,Humidity,HourlyPrecipIn,Conditions,Clouds,dailyrainin,SolarRadiationWatts/m^2,SoftwareType,DateUTC
2013-07-13 00:03:00,73.7,61.0,29.89,SSE,151,0.0,2.0,65,0.00,,,0.00,0,Custom,2013-07-13 05:03:00,
2013-07-13 00:08:00,73.8,61.0,29.89,SSE,150,0.0,1.0,64,0.00,,,0.00,0,Custom,2013-07-13 05:08:00,
2013-07-13 00:13:00,73.5,61.0,29.89,SSE,150,0.0,0.0,64,0.00,,,0.00,0,Custom,2013-07-13 05:13:00,
2013-07-13 00:18:00,73.5,61.0,29.89,SSE,151,0.0,3.0,64,0.00,,,0.00,0,Custom,2013-07-13 05:18:00,
2013-07-13 00:23:00,73.5,61.0,29.90,SSE,151,1.0,0.0,65,0.00,,,0.00,0,Custom,2013-07-13 05:23:00,
2013-07-13 00:28:00,73.7,61.0,29.89,SE,145,0.0,3.0,64,0.00,,,0.00,0,Custom,2013-07-13 05:28:00,
2013-07-13 00:33:00,73.6,60.0,29.90,SW,223,0.0,2.0,63,0.00,,,0.00,0,Custom,2013-07-13 05:33:00,
2013-07-13 00:38:00,73.4,60.0,29.89,SW,222,0.0,3.0,63,0.00,,,0.00,0,Custom,2013-07-13 05:38:00,
2013-07-13 00:43:00,73.4,60.0,29.90,South,175,0.0,0.0,63,0.00,,,0.00,0,Custom,2013-07-13 05:43:00,
2013-07-13 00:48:00,73.2,60.0,29.90,South,174,0.0,0.0,63,0.00,,,0.00,0,Custom,2013-07-13 05:48:00,
2013-07-13 00:53:00,73.2,60.0,29.89,South,179,0.0,0.0,63,0.00,,,0.00,0,Custom,2013-07-13 05:53:00,
2013-07-13 00:58:00,73.1,60.0,29.90,SSW,200,0.0,3.0,63,0.00,,,0.00,0,Custom,2013-07-13 05:58:00,
2013-07-13 01:03:00,73.0,60.0,29.89,SSW,193,0.0,4.0,64,0.00,,,0.00,0,Custom,2013-07-13 06:03:00,
2013-07-13 01:08:00,72.9,60.0,29.89,SSW,193,0.0,0.0,64,0.00,,,0.00,0,Custom,2013-07-13 06:08:00,
2013-07-13 01:13:00,72.9,60.0,29.90,ESE,120,0.0,0.0,63,0.00,,,0.00,0,Custom,2013-07-13 06:13:00,
2013-07-13 01:18:00,72.8,60.0,29.90,SSE,148,0.0,1.0,63,0.00,,,0.00,0,Custom,2013-07-13 06:18:00,
2013-07-13 01:23:00,72.8,60.0,29.89,SE,144,2.0,0.0,64,0.00,,,0.00,0,Custom,2013-07-13 06:23:00,
2013-07-13 01:28:00,72.9,60.0,29.90,South,172,0.0,3.0,64,0.00,,,0.00,0,Custom,2013-07-13 06:28:00,
2013-07-13 01:33:00,73.2,60.0,29.89,SSE,151,0.0,2.0,63,0.00,,,0.00,0,Custom,2013-07-13 06:33:00,
2013-07-13 01:38:00,73.1,60.0,29.90,SE,134,0.0,2.0,63,0.00,,,0.00,0,Custom,2013-07-13 06:38:00,
2013-07-13 01:43:00,73.2,60.0,29.90,South,174,2.0,2.0,63,0.00,,,0.00,0,Custom,2013-07-13 06:43:00,
2013-07-13 01:48:00,73.0,60.0,29.90,SSE,161,0.0,2.0,64,0.00,,,0.00,0,Custom,2013-07-13 06:48:00,
2013-07-13 01:53:00,73.1,60.0,29.90,SSW,194,0.0,3.0,63,0.00,,,0.00,0,Custom,2013-07-13 06:53:00,
2013-07-13 01:58:00,73.3,60.0,29.90,SSW,194,0.0,6.0,63,0.00,,,0.00,0,Custom,2013-07-13 06:58:00,
2013-07-13 02:03:00,72.9,60.0,29.91,SSW,192,0.0,2.0,64,0.00,,,0.00,0,Custom,2013-07-13 07:03:00,
2013-07-13 02:08:00,72.8,60.0,29.91,South,177,0.0,0.0,64,0.00,,,0.00,0,Custom,2013-07-13 07:08:00,
2013-07-13 02:13:00,72.8,60.0,29.91,SE,127,0.0,4.0,64,0.00,,,0.00,0,Custom,2013-07-13 07:13:00,
2013-07-13 02:18:00,72.7,60.0,29.91,SE,127,0.0,4.0,64,0.00,,,0.00,0,Custom,2013-07-13 07:18:00,
2013-07-13 02:23:00,72.4,60.0,29.91,SSE,159,0.0,0.0,65,0.00,,,0.00,0,Custom,2013-07-13 07:23:00,
2013-07-13 02:28:00,72.6,60.0,29.91,East,99,0.0,5.0,65,0.00,,,0.00,0,Custom,2013-07-13 07:28:00,
2013-07-13 02:33:00,72.4,60.0,29.91,East,100,3.0,3.0,66,0.00,,,0.00,0,Custom,2013-07-13 07:33:00,
2013-07-13 02:38:00,72.5,60.0,29.91,ESE,111,0.0,4.0,65,0.00,,,0.00,0,Custom,2013-07-13 07:38:00,
2013-07-13 02:43:00,72.4,60.0,29.91,ESE,107,0.0,3.0,66,0.00,,,0.00,0,Custom,2013-07-13 07:43:00,
2013-07-13 02:48:00,72.2,60.0,29.91,South,169,0.0,0.0,66,0.00,,,0.00,0,Custom,2013-07-13 07:48:00,
2013-07-13 02:53:00,72.0,60.0,29.91,SE,124,0.0,2.0,66,0.00,,,0.00,0,Custom,2013-07-13 07:53:00,
2013-07-13 02:58:00,71.7,60.0,29.91,SE,128,0.0,2.0,66,0.00,,,0.00,0,Custom,2013-07-13 07:58:00,
2013-07-13 03:03:00,71.5,60.0,29.91,SE,128,2.0,0.0,67,0.00,,,0.00,0,Custom,2013-07-13 08:03:00,
2013-07-13 03:08:00,71.4,60.0,29.91,SE,126,0.0,1.0,67,0.00,,,0.00,0,Custom,2013-07-13 08:08:00,
2013-07-13 03:13:00,71.2,60.0,29.91,SE,126,0.0,0.0,68,0.00,,,0.00,0,Custom,2013-07-13 08:13:00,
2013-07-13 03:18:00,71.2,60.0,29.91,SSW,202,2.0,2.0,68,0.00,,,0.00,0,Custom,2013-07-13 08:18:00,
2013-07-13 03:23:00,71.2,60.0,29.91,ESE,103,0.0,2.0,68,0.00,,,0.00,0,Custom,2013-07-13 08:23:00,
2013-07-13 03:28:00,71.1,60.0,29.91,East,101,0.0,2.0,68,0.00,,,0.00,0,Custom,2013-07-13 08:28:00,
2013-07-13 03:33:00,71.3,60.0,29.91,ESE,103,0.0,4.0,68,0.00,,,0.00,0,Custom,2013-07-13 08:33:00,
2013-07-13 03:38:00,71.1,60.0,29.91,ESE,104,0.0,4.0,68,0.00,,,0.00,0,Custom,2013-07-13 08:38:00,
2013-07-13 03:43:00,71.0,60.0,29.91,ESE,104,0.0,0.0,68,0.00,,,0.00,0,Custom,2013-07-13 08:43:00,
2013-07-13 03:48:00,70.8,60.0,29.91,ESE,104,0.0,0.0,69,0.00,,,0.00,0,Custom,2013-07-13 08:48:00,
2013-07-13 03:53:00,70.8,60.0,29.91,SE,138,0.0,0.0,68,0.00,,,0.00,0,Custom,2013-07-13 08:53:00,
2013-07-13 03:58:00,70.8,60.0,29.91,SE,138,0.0,0.0,68,0.00,,,0.00,0,Custom,2013-07-13 08:58:00,
2013-07-13 04:03:00,70.4,60.0,29.91,SE,137,2.0,2.0,69,0.00,,,0.00,0,Custom,2013-07-13 09:03:00,
2013-07-13 04:08:00,70.4,60.0,29.90,SE,137,0.0,1.0,70,0.00,,,0.00,0,Custom,2013-07-13 09:08:00,
2013-07-13 04:13:00,70.2,60.0,29.90,SE,131,0.0,2.0,69,0.00,,,0.00,0,Custom,2013-07-13 09:13:00,
2013-07-13 04:18:00,70.1,60.0,29.90,South,172,0.0,3.0,70,0.00,,,0.00,0,Custom,2013-07-13 09:18:00,
2013-07-13 04:23:00,70.1,60.0,29.90,South,172,0.0,0.0,70,0.00,,,0.00,0,Custom,2013-07-13 09:23:00,
2013-07-13 04:28:00,69.9,60.0,29.90,South,172,0.0,0.0,70,0.00,,,0.00,0,Custom,2013-07-13 09:28:00,
2013-07-13 04:33:00,69.7,60.0,29.90,South,172,0.0,0.0,70,0.00,,,0.00,0,Custom,2013-07-13 09:33:00,
2013-07-13 04:38:00,69.8,60.0,29.90,South,173,0.0,2.0,70,0.00,,,0.00,0,Custom,2013-07-13 09:38:00,
2013-07-13 04:43:00,69.7,60.0,29.89,South,176,0.0,2.0,70,0.00,,,0.00,0,Custom,2013-07-13 09:43:00,
2013-07-13 04:48:00,69.6,59.0,29.89,ESE,114,0.0,0.0,70,0.00,,,0.00,0,Custom,2013-07-13 09:48:00,
2013-07-13 04:53:00,69.6,59.0,29.89,ESE,123,0.0,3.0,70,0.00,,,0.00,0,Custom,2013-07-13 09:53:00,
2013-07-13 04:58:00,69.7,60.0,29.89,SSW,212,0.0,5.0,70,0.00,,,0.00,0,Custom,2013-07-13 09:58:00,
2013-07-13 05:03:00,69.6,60.0,29.89,ESE,118,0.0,2.0,70,0.00,,,0.00,0,Custom,2013-07-13 10:03:00,
2013-07-13 05:08:00,69.4,59.0,29.89,ESE,118,0.0,3.0,70,0.00,,,0.00,0,Custom,2013-07-13 10:08:00,
2013-07-13 05:13:00,69.6,60.0,29.89,SSE,164,0.0,3.0,70,0.00,,,0.00,0,Custom,2013-07-13 10:13:00,
2013-07-13 05:18:00,69.5,59.0,29.89,ESE,119,0.0,4.0,70,0.00,,,0.00,0,Custom,2013-07-13 10:18:00,
2013-07-13 05:23:00,69.5,60.0,29.89,SE,132,0.0,1.0,71,0.00,,,0.00,0,Custom,2013-07-13 10:23:00,
2013-07-13 05:28:00,69.3,59.0,29.89,ESE,113,0.0,5.0,71,0.00,,,0.00,0,Custom,2013-07-13 10:28:00,
2013-07-13 05:33:00,69.5,59.0,29.89,ESE,103,0.0,3.0,70,0.00,,,0.00,0,Custom,2013-07-13 10:33:00,
2013-07-13 05:38:00,69.5,60.0,29.89,ESE,105,0.0,3.0,70,0.00,,,0.00,0,Custom,2013-07-13 10:38:00,
2013-07-13 05:43:00,69.3,59.0,29.90,SW,218,0.0,4.0,71,0.00,,,0.00,0,Custom,2013-07-13 10:43:00,
2013-07-13 05:48:00,69.0,59.0,29.90,SW,218,0.0,0.0,71,0.00,,,0.00,0,Custom,2013-07-13 10:48:00,
2013-07-13 05:53:00,68.7,59.0,29.90,SW,217,0.0,0.0,71,0.00,,,0.00,0,Custom,2013-07-13 10:53:00,
2013-07-13 05:58:00,68.6,59.0,29.90,SW,217,0.0,1.0,71,0.00,,,0.00,0,Custom,2013-07-13 10:58:00,
2013-07-13 06:03:00,68.7,59.0,29.90,SW,214,0.0,2.0,71,0.00,,,0.00,0,Custom,2013-07-13 11:03:00,
2013-07-13 06:08:00,68.7,59.0,29.90,ESE,113,0.0,5.0,72,0.00,,,0.00,0,Custom,2013-07-13 11:08:00,
2013-07-13 06:13:00,68.7,59.0,29.91,ESE,114,0.0,0.0,72,0.00,,,0.00,0,Custom,2013-07-13 11:13:00,
2013-07-13 06:18:00,68.4,59.0,29.91,ESE,115,0.0,2.0,72,0.00,,,0.00,0,Custom,2013-07-13 11:18:00,
2013-07-13 06:23:00,68.3,59.0,29.91,ESE,115,0.0,0.0,72,0.00,,,0.00,0,Custom,2013-07-13 11:23:00,
2013-07-13 06:28:00,68.1,59.0,29.91,ESE,115,0.0,0.0,72,0.00,,,0.00,0,Custom,2013-07-13 11:28:00,
2013-07-13 06:33:00,68.0,59.0,29.91,ESE,117,0.0,0.0,72,0.00,,,0.00,7.8,Custom,2013-07-13 11:33:00,
2013-07-13 06:38:00,68.1,59.0,29.91,ESE,103,0.0,2.0,73,0.00,,,0.00,10.53,Custom,2013-07-13 11:38:00,
2013-07-13 06:39:00,68.1,59.0,29.91,ESE,103,0.0,3.0,72,0.00,,,0.00,11.31,Custom,2013-07-13 11:39:00,
2013-07-13 06:44:00,68.3,59.0,29.91,ESE,103,0.0,0.0,72,0.00,,,0.00,14.82,Custom,2013-07-13 11:44:00,
2013-07-13 06:49:00,68.3,59.0,29.91,ESE,112,0.0,0.0,73,0.00,,,0.00,18.72,Custom,2013-07-13 11:49:00,
2013-07-13 06:54:00,68.7,59.0,29.91,East,97,0.0,5.0,72,0.00,,,0.00,23.4,Custom,2013-07-13 11:54:00,
2013-07-13 06:59:00,68.7,59.0,29.91,East,100,0.0,3.0,72,0.00,,,0.00,26.13,Custom,2013-07-13 11:59:00,
2013-07-13 07:04:00,68.8,59.0,29.91,SSW,208,0.0,1.0,71,0.00,,,0.00,27.69,Custom,2013-07-13 12:04:00,
2013-07-13 07:09:00,69.1,59.0,29.91,ENE,73,0.0,4.0,71,0.00,,,0.00,31.59,Custom,2013-07-13 12:09:00,
2013-07-13 07:14:00,69.4,59.0,29.91,East,82,0.0,7.0,70,0.00,,,0.00,33.93,Custom,2013-07-13 12:14:00,
2013-07-13 07:19:00,69.6,59.0,29.91,NE,47,5.0,5.0,70,0.00,,,0.00,59.67,Custom,2013-07-13 12:19:00,
2013-07-13 07:24:00,70.3,59.0,29.91,East,87,0.0,6.0,68,0.00,,,0.00,69.03,Custom,2013-07-13 12:24:00,
2013-07-13 07:29:00,71.0,58.0,29.91,WSW,252,1.0,9.0,64,0.00,,,0.00,79.17,Custom,2013-07-13 12:29:00,
2013-07-13 07:34:00,71.2,59.0,29.91,South,186,0.0,6.0,65,0.00,,,0.00,87.75,Custom,2013-07-13 12:34:00,
2013-07-13 07:39:00,71.7,59.0,29.91,SSW,196,0.0,4.0,64,0.00,,,0.00,101.4,Custom,2013-07-13 12:39:00,
2013-07-13 07:44:00,71.9,59.0,29.91,ESE,119,0.0,6.0,63,0.00,,,0.00,101.01,Custom,2013-07-13 12:44:00,
2013-07-13 07:49:00,72.4,59.0,29.91,SSW,195,0.0,5.0,63,0.00,,,0.00,133.38,Custom,2013-07-13 12:49:00,
2013-07-13 07:54:00,72.7,59.0,29.91,South,171,0.0,4.0,62,0.00,,,0.00,131.82,Custom,2013-07-13 12:54:00,
2013-07-13 07:59:00,73.4,60.0,29.91,ESE,121,2.0,3.0,62,0.00,,,0.00,174.33,Custom,2013-07-13 12:59:00,
2013-07-13 08:04:00,73.6,59.0,29.91,South,181,0.0,4.0,60,0.00,,,0.00,191.88,Custom,2013-07-13 13:04:00,
2013-07-13 08:09:00,73.8,59.0,29.91,SSW,194,0.0,6.0,60,0.00,,,0.00,210.99,Custom,2013-07-13 13:09:00,
2013-07-13 08:14:00,74.2,59.0,29.92,South,188,0.0,6.0,59,0.00,,,0.00,179.01,Custom,2013-07-13 13:14:00,
2013-07-13 08:19:00,74.3,60.0,29.92,SE,132,0.0,4.0,60,0.00,,,0.00,247.65,Custom,2013-07-13 13:19:00,
2013-07-13 08:24:00,75.0,60.0,29.91,SSW,192,1.0,11.0,60,0.00,,,0.00,284.31,Custom,2013-07-13 13:24:00,
2013-07-13 08:29:00,75.2,60.0,29.91,South,175,0.0,11.0,59,0.00,,,0.00,270.27,Custom,2013-07-13 13:29:00,
2013-07-13 08:34:00,76.2,60.0,29.92,South,180,5.0,5.0,58,0.00,,,0.00,332.67,Custom,2013-07-13 13:34:00,
2013-07-13 08:39:00,76.4,60.0,29.92,South,180,0.0,4.0,57,0.00,,,0.00,299.91,Custom,2013-07-13 13:39:00,
2013-07-13 08:44:00,76.1,60.0,29.92,SSW,202,0.0,6.0,58,0.00,,,0.00,212.16,Custom,2013-07-13 13:44:00,
2013-07-13 08:49:00,76.9,60.0,29.92,South,176,0.0,4.0,56,0.00,,,0.00,351.39,Custom,2013-07-13 13:49:00,
2013-07-13 08:54:00,77.2,60.0,29.92,SSW,197,0.0,4.0,56,0.00,,,0.00,364.65,Custom,2013-07-13 13:54:00,
2013-07-13 08:59:00,77.3,60.0,29.93,ESE,120,0.0,5.0,56,0.00,,,0.00,404.82,Custom,2013-07-13 13:59:00,
2013-07-13 09:04:00,78.2,61.0,29.92,South,182,0.0,5.0,56,0.00,,,0.00,418.47,Custom,2013-07-13 14:04:00,
2013-07-13 09:09:00,78.9,62.0,29.93,SSE,166,0.0,2.0,56,0.00,,,0.00,448.11,Custom,2013-07-13 14:09:00,
2013-07-13 09:14:00,78.6,61.0,29.93,South,177,0.0,7.0,53,0.00,,,0.00,365.82,Custom,2013-07-13 14:14:00,
2013-07-13 09:19:00,79.4,61.0,29.93,SSW,192,0.0,5.0,54,0.00,,,0.00,463.71,Custom,2013-07-13 14:19:00,
2013-07-13 09:24:00,80.5,62.0,29.93,South,180,0.0,4.0,54,0.00,,,0.00,475.02,Custom,2013-07-13 14:24:00,
2013-07-13 09:29:00,81.0,62.0,29.93,South,187,0.0,2.0,53,0.00,,,0.00,503.1,Custom,2013-07-13 14:29:00,
2013-07-13 09:34:00,81.1,62.0,29.93,South,188,0.0,2.0,53,0.00,,,0.00,361.92,Custom,2013-07-13 14:34:00,
2013-07-13 09:39:00,81.5,63.0,29.93,South,182,4.0,5.0,53,0.00,,,0.00,533.52,Custom,2013-07-13 14:39:00,
2013-07-13 09:44:00,81.5,63.0,29.93,East,101,0.0,7.0,53,0.00,,,0.00,509.73,Custom,2013-07-13 14:44:00,
2013-07-13 09:49:00,82.3,64.0,29.93,ESE,103,0.0,2.0,53,0.00,,,0.00,519.09,Custom,2013-07-13 14:49:00,
2013-07-13 09:54:00,82.1,64.0,29.93,South,181,0.0,6.0,54,0.00,,,0.00,571.74,Custom,2013-07-13 14:54:00,
2013-07-13 09:59:00,82.3,63.0,29.93,South,187,0.0,6.0,52,0.00,,,0.00,585.39,Custom,2013-07-13 14:59:00,
2013-07-13 10:04:00,83.3,64.0,29.93,East,86,0.0,7.0,52,0.00,,,0.00,603.72,Custom,2013-07-13 15:04:00,
2013-07-13 10:09:00,82.8,63.0,29.93,South,186,4.0,4.0,51,0.00,,,0.00,400.53,Custom,2013-07-13 15:09:00,
2013-07-13 10:14:00,82.9,63.0,29.92,SSW,204,0.0,4.0,51,0.00,,,0.00,608.4,Custom,2013-07-13 15:14:00,
2013-07-13 10:19:00,83.8,63.0,29.92,South,188,4.0,7.0,50,0.00,,,0.00,636.87,Custom,2013-07-13 15:19:00,
2013-07-13 10:24:00,84.2,63.0,29.92,South,175,0.0,5.0,50,0.00,,,0.00,643.5,Custom,2013-07-13 15:24:00,
2013-07-13 10:29:00,84.3,63.0,29.92,SSW,196,5.0,5.0,49,0.00,,,0.00,596.7,Custom,2013-07-13 15:29:00,
2013-07-13 10:34:00,84.8,65.0,29.92,SSW,198,0.0,7.0,51,0.00,,,0.00,685.62,Custom,2013-07-13 15:34:00,
2013-07-13 10:39:00,84.6,63.0,29.93,South,189,2.0,5.0,49,0.00,,,0.00,650.91,Custom,2013-07-13 15:39:00,
2013-07-13 10:44:00,85.0,64.0,29.92,South,182,0.0,5.0,49,0.00,,,0.00,510.51,Custom,2013-07-13 15:44:00,
2013-07-13 10:49:00,84.2,65.0,29.93,South,178,0.0,7.0,52,0.00,,,0.00,473.85,Custom,2013-07-13 15:49:00,
2013-07-13 10:54:00,84.2,64.0,29.93,ESE,117,3.0,3.0,51,0.00,,,0.00,489.84,Custom,2013-07-13 15:54:00,
2013-07-13 10:59:00,84.5,64.0,29.93,South,186,0.0,3.0,51,0.00,,,0.00,645.06,Custom,2013-07-13 15:59:00,
2013-07-13 11:04:00,85.9,65.0,29.92,South,174,3.0,5.0,49,0.00,,,0.00,724.62,Custom,2013-07-13 16:04:00,
2013-07-13 11:09:00,86.2,65.0,29.93,SSW,201,3.0,5.0,50,0.00,,,0.00,724.62,Custom,2013-07-13 16:09:00,
2013-07-13 11:14:00,86.8,65.0,29.93,SSE,166,0.0,7.0,49,0.00,,,0.00,749.97,Custom,2013-07-13 16:14:00,
2013-07-13 11:19:00,87.5,64.0,29.92,South,188,0.0,6.0,46,0.00,,,0.00,791.7,Custom,2013-07-13 16:19:00,
2013-07-13 11:24:00,88.3,66.0,29.92,South,182,1.0,3.0,47,0.00,,,0.00,793.65,Custom,2013-07-13 16:24:00,
2013-07-13 11:29:00,87.9,64.0,29.93,SW,214,0.0,9.0,46,0.00,,,0.00,792.09,Custom,2013-07-13 16:29:00,
2013-07-13 11:34:00,89.4,65.0,29.92,SSW,210,0.0,2.0,45,0.00,,,0.00,689.52,Custom,2013-07-13 16:34:00,
2013-07-13 11:39:00,88.1,64.0,29.92,South,172,0.0,2.0,45,0.00,,,0.00,672.75,Custom,2013-07-13 16:39:00,
2013-07-13 11:44:00,87.6,66.0,29.92,SE,134,0.0,5.0,48,0.00,,,0.00,724.62,Custom,2013-07-13 16:44:00,
2013-07-13 11:49:00,88.9,68.0,29.92,SE,142,0.0,0.0,50,0.00,,,0.00,616.59,Custom,2013-07-13 16:49:00,
2013-07-13 11:54:00,87.5,64.0,29.92,SSW,205,0.0,3.0,45,0.00,,,0.00,338.91,Custom,2013-07-13 16:54:00,
2013-07-13 11:59:00,87.3,64.0,29.92,SSW,194,0.0,7.0,46,0.00,,,0.00,732.81,Custom,2013-07-13 16:59:00,
2013-07-13 12:04:00,89.3,67.0,29.92,South,169,0.0,4.0,48,0.00,,,0.00,753.48,Custom,2013-07-13 17:04:00,
2013-07-13 12:09:00,89.0,65.0,29.92,South,184,0.0,4.0,46,0.00,,,0.00,561.21,Custom,2013-07-13 17:09:00,
2013-07-13 12:14:00,90.2,67.0,29.92,South,173,4.0,5.0,47,0.00,,,0.00,519.87,Custom,2013-07-13 17:14:00,
2013-07-13 12:19:00,89.7,66.0,29.92,SE,130,0.0,6.0,45,0.00,,,0.00,491.01,Custom,2013-07-13 17:19:00,
2013-07-13 12:24:00,90.4,66.0,29.91,SE,143,0.0,3.0,45,0.00,,,0.00,732.03,Custom,2013-07-13 17:24:00,
2013-07-13 12:29:00,90.4,65.0,29.92,ESE,123,0.0,6.0,44,0.00,,,0.00,597.48,Custom,2013-07-13 17:29:00,
2013-07-13 12:34:00,90.0,68.0,29.91,East,99,0.0,5.0,48,0.00,,,0.00,755.82,Custom,2013-07-13 17:34:00,
2013-07-13 12:39:00,90.0,67.0,29.91,SSW,195,0.0,4.0,46,0.00,,,0.00,422.76,Custom,2013-07-13 17:39:00,
2013-07-13 12:44:00,90.3,69.0,29.91,SSW,194,0.0,2.0,50,0.00,,,0.00,496.86,Custom,2013-07-13 17:44:00,
2013-07-13 12:49:00,89.6,66.0,29.91,SSW,205,0.0,3.0,46,0.00,,,0.00,474.63,Custom,2013-07-13 17:49:00,
2013-07-13 12:54:00,88.2,66.0,29.91,SSW,195,0.0,7.0,47,0.00,,,0.00,530.79,Custom,2013-07-13 17:54:00,
2013-07-13 12:59:00,88.4,68.0,29.91,SSE,153,0.0,0.0,51,0.00,,,0.00,491.01,Custom,2013-07-13 17:59:00,
2013-07-13 13:04:00,89.6,68.0,29.91,South,186,0.0,4.0,49,0.00,,,0.00,709.8,Custom,2013-07-13 18:04:00,
2013-07-13 13:09:00,90.6,68.0,29.91,SSW,198,0.0,6.0,47,0.00,,,0.00,741.39,Custom,2013-07-13 18:09:00,
2013-07-13 13:14:00,90.4,67.0,29.91,South,182,0.0,6.0,46,0.00,,,0.00,760.89,Custom,2013-07-13 18:14:00,
2013-07-13 13:19:00,91.2,67.0,29.91,SSW,208,1.0,3.0,45,0.00,,,0.00,725.4,Custom,2013-07-13 18:19:00,
2013-07-13 13:24:00,91.3,67.0,29.91,East,100,0.0,6.0,44,0.00,,,0.00,759.72,Custom,2013-07-13 18:24:00,
2013-07-13 13:29:00,91.2,66.0,29.91,South,180,0.0,7.0,44,0.00,,,0.00,546,Custom,2013-07-13 18:29:00,
2013-07-13 13:34:00,90.4,66.0,29.91,SSE,150,0.0,5.0,45,0.00,,,0.00,678.99,Custom,2013-07-13 18:34:00,
2013-07-13 13:39:00,91.4,68.0,29.91,South,180,0.0,3.0,47,0.00,,,0.00,760.11,Custom,2013-07-13 18:39:00,
2013-07-13 13:44:00,92.1,68.0,29.91,ESE,114,3.0,5.0,45,0.00,,,0.00,764.01,Custom,2013-07-13 18:44:00,
2013-07-13 13:49:00,91.8,67.0,29.90,South,180,0.0,5.0,45,0.00,,,0.00,527.67,Custom,2013-07-13 18:49:00,
2013-07-13 13:54:00,91.6,69.0,29.91,SSE,150,0.0,5.0,47,0.00,,,0.00,729.69,Custom,2013-07-13 18:54:00,
2013-07-13 13:59:00,92.4,69.0,29.91,South,182,0.0,4.0,46,0.00,,,0.00,769.86,Custom,2013-07-13 18:59:00,
2013-07-13 14:04:00,94.1,69.0,29.91,South,184,1.0,5.0,44,0.00,,,0.00,750.36,Custom,2013-07-13 19:04:00,
2013-07-13 14:09:00,93.9,69.0,29.90,South,184,0.0,3.0,44,0.00,,,0.00,518.31,Custom,2013-07-13 19:09:00,
2013-07-13 14:14:00,91.7,69.0,29.90,East,88,0.0,4.0,47,0.00,,,0.00,578.76,Custom,2013-07-13 19:14:00,
2013-07-13 14:19:00,92.2,69.0,29.89,ESE,118,6.0,0.0,47,0.00,,,0.00,749.97,Custom,2013-07-13 19:19:00,
2013-07-13 14:24:00,93.8,70.0,29.90,ESE,123,0.0,6.0,46,0.00,,,0.00,762.06,Custom,2013-07-13 19:24:00,
2013-07-13 14:29:00,93.3,70.0,29.90,SE,127,0.0,5.0,46,0.00,,,0.00,599.43,Custom,2013-07-13 19:29:00,
2013-07-13 14:34:00,92.2,69.0,29.90,East,97,0.0,5.0,47,0.00,,,0.00,536.64,Custom,2013-07-13 19:34:00,
2013-07-13 14:39:00,91.3,68.0,29.90,East,82,0.0,3.0,46,0.00,,,0.00,549.9,Custom,2013-07-13 19:39:00,
2013-07-13 14:44:00,91.4,70.0,29.90,ESE,112,0.0,2.0,49,0.00,,,0.00,440.31,Custom,2013-07-13 19:44:00,
2013-07-13 14:49:00,90.5,70.0,29.90,East,92,0.0,3.0,51,0.00,,,0.00,329.94,Custom,2013-07-13 19:49:00,
2013-07-13 14:54:00,91.4,69.0,29.89,East,93,0.0,0.0,48,0.00,,,0.00,484.77,Custom,2013-07-13 19:54:00,
2013-07-13 14:59:00,90.6,68.0,29.89,East,86,6.0,6.0,48,0.00,,,0.00,369.33,Custom,2013-07-13 19:59:00,
2013-07-13 15:04:00,89.7,69.0,29.89,ESE,111,0.0,5.0,51,0.00,,,0.00,410.28,Custom,2013-07-13 20:04:00,
2013-07-13 15:09:00,90.0,69.0,29.89,East,83,0.0,4.0,51,0.00,,,0.00,640.38,Custom,2013-07-13 20:09:00,
2013-07-13 15:14:00,90.8,68.0,29.89,ESE,117,1.0,5.0,48,0.00,,,0.00,556.14,Custom,2013-07-13 20:14:00,
2013-07-13 15:19:00,90.1,68.0,29.89,East,98,0.0,4.0,49,0.00,,,0.00,467.61,Custom,2013-07-13 20:19:00,
2013-07-13 15:24:00,89.9,69.0,29.89,ESE,117,3.0,5.0,50,0.00,,,0.00,349.83,Custom,2013-07-13 20:24:00,
2013-07-13 15:29:00,89.7,69.0,29.89,ESE,102,3.0,4.0,51,0.00,,,0.00,442.65,Custom,2013-07-13 20:29:00,
2013-07-13 15:34:00,89.1,67.0,29.89,ENE,73,0.0,5.0,49,0.00,,,0.00,321.36,Custom,2013-07-13 20:34:00,
2013-07-13 15:39:00,88.7,69.0,29.89,East,101,0.0,2.0,52,0.00,,,0.00,453.57,Custom,2013-07-13 20:39:00,
2013-07-13 15:44:00,89.7,69.0,29.89,SE,128,0.0,5.0,50,0.00,,,0.00,579.93,Custom,2013-07-13 20:44:00,
2013-07-13 15:49:00,91.5,69.0,29.89,SE,135,0.0,0.0,48,0.00,,,0.00,447.33,Custom,2013-07-13 20:49:00,
2013-07-13 15:54:00,89.8,69.0,29.89,ENE,73,0.0,2.0,50,0.00,,,0.00,449.28,Custom,2013-07-13 20:54:00,
2013-07-13 15:59:00,89.7,69.0,29.89,East,87,5.0,6.0,51,0.00,,,0.00,384.54,Custom,2013-07-13 20:59:00,
2013-07-13 16:04:00,88.3,68.0,29.89,SE,129,0.0,6.0,51,0.00,,,0.00,335.79,Custom,2013-07-13 21:04:00,
2013-07-13 16:09:00,88.2,69.0,29.88,ESE,108,0.0,7.0,53,0.00,,,0.00,534.3,Custom,2013-07-13 21:09:00,
2013-07-13 16:14:00,89.7,69.0,29.89,SE,137,0.0,5.0,51,0.00,,,0.00,400.53,Custom,2013-07-13 21:14:00,
2013-07-13 16:19:00,88.6,68.0,29.88,ESE,105,0.0,6.0,51,0.00,,,0.00,375.18,Custom,2013-07-13 21:19:00,
2013-07-13 16:24:00,88.7,69.0,29.89,SE,139,0.0,5.0,53,0.00,,,0.00,370.89,Custom,2013-07-13 21:24:00,
2013-07-13 16:29:00,88.2,68.0,29.88,SE,125,0.0,6.0,52,0.00,,,0.00,296.01,Custom,2013-07-13 21:29:00,
2013-07-13 16:34:00,87.0,68.0,29.88,East,99,3.0,4.0,53,0.00,,,0.00,204.36,Custom,2013-07-13 21:34:00,
2013-07-13 16:39:00,86.7,68.0,29.88,SW,225,0.0,5.0,54,0.00,,,0.00,180.57,Custom,2013-07-13 21:39:00,
2013-07-13 16:44:00,86.4,68.0,29.88,SSE,149,0.0,2.0,54,0.00,,,0.00,175.11,Custom,2013-07-13 21:44:00,
2013-07-13 16:49:00,86.2,69.0,29.88,ESE,112,0.0,4.0,56,0.00,,,0.00,176.67,Custom,2013-07-13 21:49:00,
2013-07-13 16:54:00,85.6,69.0,29.88,East,88,0.0,2.0,58,0.00,,,0.00,147.42,Custom,2013-07-13 21:54:00,
2013-07-13 16:59:00,85.7,69.0,29.88,ESE,116,0.0,3.0,57,0.00,,,0.00,202.8,Custom,2013-07-13 21:59:00,
2013-07-13 17:04:00,85.6,69.0,29.88,SE,124,0.0,5.0,57,0.00,,,0.00,207.87,Custom,2013-07-13 22:04:00,
2013-07-13 17:09:00,85.2,69.0,29.88,East,79,3.0,3.0,59,0.00,,,0.00,214.89,Custom,2013-07-13 22:09:00,
2013-07-13 17:14:00,85.3,69.0,29.87,East,79,2.0,4.0,59,0.00,,,0.00,234.78,Custom,2013-07-13 22:14:00,
2013-07-13 17:19:00,85.0,69.0,29.87,ESE,113,0.0,6.0,58,0.00,,,0.00,234.78,Custom,2013-07-13 22:19:00,
2013-07-13 17:24:00,85.0,70.0,29.86,ESE,109,0.0,4.0,60,0.00,,,0.00,187.98,Custom,2013-07-13 22:24:00,
2013-07-13 17:29:00,85.0,69.0,29.86,SE,140,0.0,2.0,60,0.00,,,0.00,155.61,Custom,2013-07-13 22:29:00,
2013-07-13 17:34:00,84.7,69.0,29.87,East,100,1.0,3.0,59,0.00,,,0.00,170.43,Custom,2013-07-13 22:34:00,
2013-07-13 17:39:00,84.2,69.0,29.87,East,89,0.0,5.0,60,0.00,,,0.00,151.32,Custom,2013-07-13 22:39:00,
2013-07-13 17:44:00,83.8,69.0,29.87,ENE,75,5.0,7.0,61,0.00,,,0.00,132.21,Custom,2013-07-13 22:44:00,
2013-07-13 17:49:00,83.7,69.0,29.87,ENE,76,5.0,5.0,61,0.00,,,0.00,112.32,Custom,2013-07-13 22:49:00,
2013-07-13 17:54:00,83.7,69.0,29.86,East,83,0.0,4.0,61,0.00,,,0.00,129.87,Custom,2013-07-13 22:54:00,
2013-07-13 17:59:00,83.4,69.0,29.86,East,95,0.0,5.0,61,0.00,,,0.00,127.14,Custom,2013-07-13 22:59:00,
2013-07-13 18:04:00,83.3,69.0,29.86,ESE,109,0.0,4.0,62,0.00,,,0.00,103.74,Custom,2013-07-13 23:04:00,
2013-07-13 18:10:00,83.1,69.0,29.86,East,101,0.0,7.0,62,0.00,,,0.00,91.26,Custom,2013-07-13 23:10:00,
2013-07-13 18:15:00,83.1,69.0,29.86,East,101,0.0,6.0,62,0.00,,,0.00,86.19,Custom,2013-07-13 23:15:00,
2013-07-13 18:20:00,82.8,68.0,29.85,East,100,4.0,4.0,61,0.00,,,0.00,66.3,Custom,2013-07-13 23:20:00,
2013-07-13 18:25:00,82.6,69.0,29.85,East,96,0.0,3.0,63,0.00,,,0.00,57.72,Custom,2013-07-13 23:25:00,
2013-07-13 18:30:00,82.3,68.0,29.85,East,79,0.0,5.0,62,0.00,,,0.00,56.16,Custom,2013-07-13 23:30:00,
2013-07-13 18:35:00,82.2,68.0,29.85,East,97,0.0,5.0,63,0.00,,,0.00,71.37,Custom,2013-07-13 23:35:00,
2013-07-13 18:40:00,82.3,68.0,29.85,East,82,0.0,5.0,63,0.00,,,0.00,93.21,Custom,2013-07-13 23:40:00,
2013-07-13 18:45:00,82.3,68.0,29.85,East,92,0.0,7.0,62,0.00,,,0.00,105.69,Custom,2013-07-13 23:45:00,
2013-07-13 18:50:00,82.2,68.0,29.85,East,99,0.0,4.0,63,0.00,,,0.00,117.78,Custom,2013-07-13 23:50:00,
2013-07-13 18:56:00,82.2,68.0,29.85,ESE,121,0.0,5.0,62,0.00,,,0.00,99.06,Custom,2013-07-13 23:56:00,
2013-07-13 19:01:00,82.0,68.0,29.85,East,100,0.0,2.0,63,0.00,,,0.00,76.83,Custom,2013-07-14 00:01:00,
2013-07-13 19:06:00,81.8,69.0,29.85,ESE,104,0.0,4.0,64,0.00,,,0.00,76.05,Custom,2013-07-14 00:06:00,
2013-07-13 19:11:00,81.5,68.0,29.85,ESE,110,0.0,6.0,63,0.00,,,0.00,52.65,Custom,2013-07-14 00:11:00,
2013-07-13 19:16:00,81.4,68.0,29.85,SE,134,0.0,5.0,64,0.00,,,0.00,36.66,Custom,2013-07-14 00:16:00,
2013-07-13 19:21:00,81.2,68.0,29.85,ENE,63,0.0,4.0,64,0.00,,,0.00,37.44,Custom,2013-07-14 00:21:00,
2013-07-13 19:26:00,81.2,67.0,29.85,ESE,109,0.0,7.0,63,0.00,,,0.00,34.32,Custom,2013-07-14 00:26:00,
2013-07-13 19:31:00,81.1,67.0,29.85,ESE,118,0.0,4.0,63,0.00,,,0.00,27.69,Custom,2013-07-14 00:31:00,
2013-07-13 19:36:00,81.1,67.0,29.85,ENE,61,4.0,4.0,62,0.00,,,0.00,28.08,Custom,2013-07-14 00:36:00,
2013-07-13 19:41:00,81.0,67.0,29.85,ESE,107,0.0,5.0,62,0.00,,,0.00,23.79,Custom,2013-07-14 00:41:00,
2013-07-13 19:42:00,81.0,67.0,29.85,East,94,0.0,4.0,62,0.00,,,0.00,23.79,Custom,2013-07-14 00:42:00,
2013-07-13 19:47:00,80.8,67.0,29.85,ENE,77,0.0,7.0,63,0.00,,,0.00,21.45,Custom,2013-07-14 00:47:00,
2013-07-13 19:52:00,80.7,67.0,29.85,ESE,113,0.0,4.0,62,0.00,,,0.00,18.72,Custom,2013-07-14 00:52:00,
2013-07-13 19:57:00,80.6,67.0,29.85,ESE,121,0.0,4.0,63,0.00,,,0.00,16.77,Custom,2013-07-14 00:57:00,
2013-07-13 20:02:00,80.3,67.0,29.85,East,95,0.0,4.0,63,0.00,,,0.00,15.6,Custom,2013-07-14 01:02:00,
2013-07-13 20:07:00,80.2,67.0,29.85,ENE,73,0.0,6.0,64,0.00,,,0.00,12.87,Custom,2013-07-14 01:07:00,
2013-07-13 20:12:00,80.1,67.0,29.85,East,88,0.0,4.0,64,0.00,,,0.00,10.92,Custom,2013-07-14 01:12:00,
2013-07-13 20:17:00,80.1,66.0,29.85,East,89,0.0,0.0,63,0.00,,,0.00,7.8,Custom,2013-07-14 01:17:00,
2013-07-13 20:22:00,79.9,66.0,29.85,East,89,0.0,0.0,63,0.00,,,0.00,0,Custom,2013-07-14 01:22:00,
2013-07-13 20:27:00,79.7,66.0,29.85,East,90,0.0,4.0,64,0.00,,,0.00,0,Custom,2013-07-14 01:27:00,
2013-07-13 20:32:00,79.4,66.0,29.86,East,80,0.0,0.0,64,0.00,,,0.00,0,Custom,2013-07-14 01:32:00,
2013-07-13 20:37:00,79.3,67.0,29.86,East,91,0.0,1.0,65,0.00,,,0.00,0,Custom,2013-07-14 01:37:00,
2013-07-13 20:42:00,79.1,66.0,29.86,East,91,0.0,0.0,65,0.00,,,0.00,0,Custom,2013-07-14 01:42:00,
2013-07-13 20:47:00,79.1,67.0,29.85,SSE,154,0.0,2.0,66,0.00,,,0.00,0,Custom,2013-07-14 01:47:00,
2013-07-13 20:52:00,79.0,66.0,29.85,SSE,153,0.0,2.0,65,0.00,,,0.00,0,Custom,2013-07-14 01:52:00,
2013-07-13 20:57:00,78.8,66.0,29.86,SSE,151,0.0,2.0,65,0.00,,,0.00,0,Custom,2013-07-14 01:57:00,
2013-07-13 21:02:00,78.8,65.0,29.86,SSE,151,0.0,0.0,63,0.00,,,0.00,0,Custom,2013-07-14 02:02:00,
2013-07-13 21:07:00,78.6,65.0,29.87,SSE,148,0.0,0.0,64,0.00,,,0.00,0,Custom,2013-07-14 02:07:00,
2013-07-13 21:12:00,78.5,65.0,29.87,SE,142,0.0,3.0,64,0.00,,,0.00,0,Custom,2013-07-14 02:12:00,
2013-07-13 21:17:00,78.1,65.0,29.88,SSE,152,0.0,2.0,64,0.00,,,0.00,0,Custom,2013-07-14 02:17:00,
2013-07-13 21:22:00,78.0,65.0,29.88,SSE,151,0.0,0.0,65,0.00,,,0.00,0,Custom,2013-07-14 02:22:00,
2013-07-13 21:27:00,77.8,65.0,29.88,ESE,120,0.0,3.0,64,0.00,,,0.00,0,Custom,2013-07-14 02:27:00,
2013-07-13 21:32:00,77.8,65.0,29.88,ESE,119,0.0,3.0,64,0.00,,,0.00,0,Custom,2013-07-14 02:32:00,
2013-07-13 21:37:00,77.6,65.0,29.88,East,95,0.0,2.0,64,0.00,,,0.00,0,Custom,2013-07-14 02:37:00,
2013-07-13 21:42:00,77.6,65.0,29.89,SSE,148,0.0,4.0,64,0.00,,,0.00,0,Custom,2013-07-14 02:42:00,
2013-07-13 21:47:00,77.6,64.0,29.89,ENE,76,3.0,6.0,63,0.00,,,0.00,0,Custom,2013-07-14 02:47:00,
2013-07-13 21:52:00,77.6,63.0,29.90,East,101,0.0,7.0,61,0.00,,,0.00,0,Custom,2013-07-14 02:52:00,
2013-07-13 21:57:00,77.3,63.0,29.90,ESE,103,3.0,4.0,61,0.00,,,0.00,0,Custom,2013-07-14 02:57:00,
2013-07-13 22:02:00,77.0,63.0,29.90,ESE,103,0.0,3.0,62,0.00,,,0.00,0,Custom,2013-07-14 03:02:00,
2013-07-13 22:07:00,76.7,63.0,29.90,ESE,103,0.0,0.0,63,0.00,,,0.00,0,Custom,2013-07-14 03:07:00,
2013-07-13 22:12:00,76.9,63.0,29.90,ESE,119,0.0,5.0,63,0.00,,,0.00,0,Custom,2013-07-14 03:12:00,
2013-07-13 22:17:00,76.9,63.0,29.90,East,84,0.0,4.0,63,0.00,,,0.00,0,Custom,2013-07-14 03:17:00,
2013-07-13 22:22:00,76.8,63.0,29.90,NE,55,0.0,4.0,62,0.00,,,0.00,0,Custom,2013-07-14 03:22:00,
2013-07-13 22:27:00,76.6,63.0,29.90,NE,55,0.0,1.0,63,0.00,,,0.00,0,Custom,2013-07-14 03:27:00,
2013-07-13 22:32:00,76.4,63.0,29.91,NE,55,0.0,0.0,63,0.00,,,0.00,0,Custom,2013-07-14 03:32:00,
2013-07-13 22:37:00,76.2,63.0,29.91,ENE,59,0.0,3.0,63,0.00,,,0.00,0,Custom,2013-07-14 03:37:00,
2013-07-13 22:42:00,76.2,63.0,29.91,ESE,114,0.0,5.0,63,0.00,,,0.00,0,Custom,2013-07-14 03:42:00,
2013-07-13 22:47:00,76.2,63.0,29.91,ESE,102,0.0,2.0,63,0.00,,,0.00,0,Custom,2013-07-14 03:47:00,
2013-07-13 22:52:00,76.0,63.0,29.91,ESE,102,0.0,2.0,64,0.00,,,0.00,0,Custom,2013-07-14 03:52:00,
2013-07-13 22:57:00,75.8,63.0,29.92,SE,128,0.0,8.0,65,0.00,,,0.00,0,Custom,2013-07-14 03:57:00,
2013-07-13 23:01:00,75.8,63.0,29.91,ESE,113,0.0,8.0,65,0.00,,,0.00,0,Custom,2013-07-14 04:01:00,
2013-07-13 23:02:00,75.8,63.0,29.92,ESE,102,3.0,3.0,65,0.00,,,0.00,0,Custom,2013-07-14 04:02:00,
2013-07-13 23:04:00,75.6,63.0,29.92,ESE,105,0.0,3.0,65,0.00,,,0.00,0,Custom,2013-07-14 04:04:00,
2013-07-13 23:09:00,75.4,63.0,29.92,ESE,111,0.0,1.0,66,0.00,,,0.00,0,Custom,2013-07-14 04:09:00,
2013-07-13 23:14:00,75.2,63.0,29.91,East,101,0.0,3.0,67,0.00,,,0.00,0,Custom,2013-07-14 04:14:00,
2013-07-13 23:19:00,75.1,64.0,29.91,East,83,0.0,5.0,68,0.00,,,0.00,0,Custom,2013-07-14 04:19:00,
2013-07-13 23:24:00,74.8,64.0,29.91,East,87,0.0,2.0,68,0.00,,,0.00,0,Custom,2013-07-14 04:24:00,
2013-07-13 23:29:00,74.7,64.0,29.91,ESE,110,0.0,3.0,68,0.00,,,0.00,0,Custom,2013-07-14 04:29:00,
2013-07-13 23:34:00,74.6,64.0,29.91,ESE,110,0.0,3.0,69,0.00,,,0.00,0,Custom,2013-07-14 04:34:00,
2013-07-13 23:39:00,74.6,64.0,29.91,SE,131,0.0,5.0,69,0.00,,,0.00,0,Custom,2013-07-14 04:39:00,
2013-07-13 23:44:00,74.6,64.0,29.92,East,94,0.0,6.0,69,0.00,,,0.00,0,Custom,2013-07-14 04:44:00,
2013-07-13 23:49:00,74.6,64.0,29.91,ESE,104,0.0,2.0,69,0.00,,,0.00,0,Custom,2013-07-14 04:49:00,
2013-07-13 23:54:00,74.5,64.0,29.91,East,87,0.0,4.0,69,0.00,,,0.00,0,Custom,2013-07-14 04:54:00,
2013-07-13 23:59:00,74.3,64.0,29.91,ESE,120,0.0,6.0,69,0.00,,,0.00,0,Custom,2013-07-14 04:59:00,